Weather History for Sarasota, FL

Change the Weather History Date:

Thursday, August 9, 2012

  Actual Average Record
Temperature  
Mean Temperature 85 °F 82 °F  
Max Temperature 92 °F 90 °F 96 °F (1993)
Min Temperature 77 °F 75 °F 68 °F (1971)
Degree Days  
Heating Degree Days 0 0  
Month to date heating degree days 0 0  
Since 1 June heating degree days 0 0  
Since 1 July heating degree days 0 0  
Cooling Degree Days 20 17  
Month to date cooling degree days 174 153  
Year to date cooling degree days 2356 1915  
Since 1 June cooling degree days 1214 1164  
Growing Degree Days 34 (Base 50)    
Moisture  
Dew Point 73 °F    
Average Humidity 70    
Maximum Humidity 88    
Minimum Humidity 49    
Precipitation  
Precipitation 0.00 in 0.28 in 4.41 in (1928)
Month to date precipitation 0.88 2.44  
Year to date precipitation 29.73 31.63  
Sea Level Pressure  
Sea Level Pressure 29.98 in    
Wind  
Wind Speed 7 mph (ESE)    
Max Wind Speed 13 mph    
Max Gust Speed 16 mph    
Visibility 10 miles    
Events      
T = Trace of Precipitation, MM = Missing Value Source: NWS Daily Summary

Daily Weather History Graph

Daily Weather History Graph

Search for Another Location

Airport:

Trip Planner

Search our weather history database for the weather conditions in past years. The results will help you decide how hot, cold, wet, or windy it might be!

Date:

Astronomy

Aug. 09, 2012 Rise Set
Actual Time 6:58 AM EDT 8:12 PM EDT
Civil Twilight 6:33 AM EDT 8:37 PM EDT
Nautical Twilight 6:04 AM EDT 9:06 PM EDT
Astronomical Twilight 5:33 AM EDT 9:36 PM EDT
Moon 12:12 AM EDT (8/9) 1:51 PM EDT (8/9)
Length of Visible Light 14h 03m
Length of Day
13h 14m
Waning Gibbous, 51% of the Moon is Illuminated
Aug 9
Waning Gibbous
Aug 9
Last Quarter
Aug 17
New
Aug 24
First Quarter
Aug 31
Full

Hourly Weather History & Observations

Time (EDT) Temp. Heat Index Dew Point Humidity Pressure Visibility Wind Dir Wind Speed Gust Speed Precip Events Conditions
12:53 AM 81.0 °F 86.2 °F 73.9 °F 79% 30.00 in 10.0 mi East 5.8 mph - N/A   Clear
1:53 AM 80.1 °F 84.5 °F 73.9 °F 81% 29.99 in 10.0 mi East 6.9 mph - N/A   Clear
2:53 AM 79.0 °F - 73.9 °F 84% 29.98 in 10.0 mi ESE 6.9 mph - N/A   Clear
3:53 AM 78.1 °F - 73.9 °F 87% 29.96 in 10.0 mi ESE 5.8 mph - N/A   Clear
4:53 AM 78.1 °F - 73.9 °F 87% 29.97 in 10.0 mi East 4.6 mph - N/A   Clear
5:53 AM 77.0 °F - 73.0 °F 88% 29.98 in 10.0 mi East 5.8 mph - N/A   Clear
6:53 AM 77.0 °F - 73.0 °F 88% 30.00 in 10.0 mi East 4.6 mph - N/A   Clear
7:53 AM 78.1 °F - 73.9 °F 87% 30.01 in 10.0 mi East 4.6 mph - N/A   Clear
8:53 AM 82.0 °F 87.9 °F 73.9 °F 76% 30.01 in 10.0 mi ESE 6.9 mph - N/A   Clear
9:53 AM 86.0 °F 93.0 °F 73.0 °F 65% 30.02 in 10.0 mi SE 9.2 mph - N/A   Clear
10:53 AM 88.0 °F 94.7 °F 72.0 °F 59% 30.02 in 10.0 mi SE 5.8 mph - N/A   Clear
11:53 AM 90.0 °F 94.5 °F 69.1 °F 50% 30.02 in 10.0 mi Variable 4.6 mph - N/A   Clear
12:53 PM 91.0 °F 96.6 °F 70.0 °F 50% 29.99 in 10.0 mi WSW 6.9 mph - N/A   Clear
1:53 PM 91.0 °F 98.2 °F 72.0 °F 53% 29.98 in 10.0 mi WSW 9.2 mph - N/A   Clear
2:53 PM 91.0 °F 99.3 °F 73.0 °F 55% 29.96 in 10.0 mi SW 10.4 mph - N/A   Clear
3:53 PM 90.0 °F 99.0 °F 73.9 °F 59% 29.94 in 10.0 mi SW 10.4 mph - N/A   Clear
4:53 PM 90.0 °F 97.9 °F 73.0 °F 57% 29.92 in 10.0 mi West 9.2 mph - N/A   Clear
5:53 PM 89.1 °F 97.0 °F 73.0 °F 59% 29.92 in 10.0 mi West 8.1 mph - N/A   Clear
6:53 PM 88.0 °F 97.5 °F 75.0 °F 65% 29.91 in 10.0 mi WNW 11.5 mph - N/A   Clear
7:53 PM 86.0 °F 93.8 °F 73.9 °F 67% 29.92 in 10.0 mi NW 8.1 mph - N/A   Clear
8:53 PM 84.9 °F 92.1 °F 73.9 °F 69% 29.95 in 10.0 mi NW 8.1 mph - N/A   Clear
9:53 PM 84.9 °F 92.1 °F 73.9 °F 69% 29.98 in 10.0 mi NNW 3.5 mph - N/A   Clear
10:53 PM 82.0 °F 87.4 °F 73.0 °F 74% 30.00 in 10.0 mi ESE 5.8 mph - N/A   Partly Cloudy
11:53 PM 81.0 °F 85.8 °F 73.0 °F 77% 29.99 in 10.0 mi ESE 5.8 mph - N/A   Mostly Cloudy